[[[{"header":{"parameterUnit":"kt","parameterCategory":2,"dx":1,"dy":1,"la1":30.253999710083008,"la2":30.299108505249023,"lo1":-89.0895004272461,"lo2":-89.04439544677734,"nx":28,"ny":28,"refTime":"2022-10-18T21:00:00:Z","depth":0,"parameterNumber":1,"parameterNumberName":"U-component_of_WINDS"},"data":[-2.9943,-3.0192,-3.0183,-3.0463,-3.0502,-3.0693,-3.0758,-3.0842,-3.0906,-3.1132,-3.1261,-3.1277,-3.134,-3.1492,-3.1632,-3.1636,-3.1701,-3.1793,-3.1785,-3.137,-3.1313,-3.1258,-3.1202,-3.1805,-3.1806,-3.222,-3.2224,-3.2227,-2.9639,-2.9681,-2.9825,-2.996,-3.0084,-2.9988,-3.0087,-3.0199,-3.0372,-3.0452,-3.0578,-3.0777,-3.0932,-3.0963,-3.1113,-3.1231,-3.1198,-3.1273,-3.127,-3.1282,-3.0835,-3.0775,-3.1297,-3.1297,-3.1297,-3.1297,-3.1297,-3.1297,-2.9085,-2.9233,-2.931,-2.9467,-2.9531,-2.9622,-2.9763,-2.978,-2.9922,-3.0076,-3.0036,-3.0233,-3.0313,-3.0489,-3.0546,-3.07,-3.0616,-3.0698,-3.072,-3.0744,-3.0774,-3.0189,-3.0723,-3.0721,-3.072,-3.0719,-3.0718,0,-2.8679,-2.8662,-2.88,-2.8936,-2.9049,-2.9154,-2.9248,-2.9334,-2.9296,-2.9415,-2.9587,-2.9685,-2.9878,-3.0042,-3.0179,-3.0222,-3.0143,-3.013,-3.0188,-3.0218,-3.0224,-3.0233,-2.9513,-3.0118,-3.0113,-3.0109,-3.0106,-3.0104,-2.8128,-2.83,-2.8375,-2.8473,-2.8523,-2.8681,-2.8774,-2.8727,-2.8828,-2.8938,-2.9072,-2.9232,-2.936,-2.9637,-2.9659,-2.9805,-2.977,-3.0002,-2.9792,-2.9808,-2.9785,-2.978,-2.9799,-3.0049,-3.0056,-3.0062,-3.0066,0,-2.782,-2.7804,-2.8069,-2.8126,-2.8145,-2.8329,-2.8379,-2.8525,-2.8525,-2.8728,-2.8772,-2.8776,-2.8946,-2.8929,-2.912,-2.9108,-2.9416,-2.9371,-2.9389,-2.9383,-2.9596,-2.958,-3.0275,-3.0367,-2.973,-2.9736,-2.9741,0,-2.7349,-2.7576,-2.7541,-2.7696,-2.7946,-2.7893,-2.8144,-2.817,-2.8237,-2.8396,-2.8297,-2.8448,-2.8402,-2.8551,-2.8532,-2.8779,-2.8813,-2.8821,-2.8816,-2.8837,-2.8838,-2.89,-2.8876,-2.8784,-2.878,-2.8777,-2.8775,0,-2.6877,-2.7122,-2.737,-2.7424,-2.751,-2.7628,-2.767,-2.7744,-2.7837,-2.7953,-2.8014,-2.8152,-2.8231,-2.8341,-2.8317,-2.8176,-2.8615,-2.8416,-2.8625,-2.8627,-2.8733,-2.8729,-2.9338,-2.877,-2.8769,-2.8768,-2.8767,0,-2.6498,-2.6615,-2.6975,-2.7045,-2.7112,-2.7274,-2.7409,-2.7543,-2.763,-2.7628,-2.7719,-2.7656,-2.7864,-2.7669,-2.7958,-2.7782,-2.7866,-2.789,-2.7905,-2.7933,-2.7718,-2.8076,-2.8649,-2.8713,-2.7944,-2.7937,-2.7931,0,-2.5966,-2.6324,-2.6282,-2.6626,-2.679,-2.6671,-2.685,-2.6929,-2.6942,-2.7084,-2.7096,-2.726,-2.711,-2.716,-2.7303,-2.7327,-2.7555,-2.7294,-2.7511,-2.7519,-2.7501,-2.8025,-2.812,-2.8522,-2.7843,-2.7852,-2.7859,0,-2.5554,-2.5655,-2.5719,-2.5781,-2.5875,-2.6012,-2.6216,-2.6366,-2.6464,-2.6561,-2.6737,-2.696,-2.6859,-2.6943,-2.6906,-2.7057,-2.7399,-2.6929,-2.6931,-2.7022,-2.7794,-2.7884,-2.7952,-2.7341,-2.7352,-2.736,-2.7789,0,-2.5,-2.5176,-2.5345,-2.5483,-2.5584,-2.5796,-2.5779,-2.5887,-2.5841,-2.5851,-2.6104,-2.6166,-2.6322,-2.639,-2.6347,-2.6696,-2.6638,-2.6528,-2.6346,-2.6686,-2.6828,-2.6885,-2.6136,-2.613,-2.6126,-2.6122,0,0,-2.4501,-2.4752,-2.4701,-2.4898,-2.4982,-2.4857,-2.5087,-2.5153,-2.5293,-2.5355,-2.5249,-2.558,-2.5636,-2.5948,-2.6052,-2.6112,-2.6176,-2.6058,-2.6522,-2.6567,-2.6608,-2.676,-2.6819,-2.6113,-2.6112,-2.611,-2.6109,0,-2.4297,-2.4351,-2.4576,-2.4642,-2.4738,-2.4736,-2.479,-2.4865,-2.4882,-2.5128,-2.5027,-2.5176,-2.5441,-2.5517,-2.559,-2.6016,-2.5937,-2.6063,-2.6301,-2.6475,-2.6526,-2.6571,-2.6731,-2.6787,-2.6097,-2.6098,-2.6098,0,-2.3895,-2.3948,-2.4054,-2.4234,-2.4297,-2.4468,-2.4269,-2.4457,-2.4585,-2.4444,-2.4692,-2.4726,-2.4824,-2.5117,-2.5248,-2.5158,-2.5721,-2.5538,-2.5567,-2.5584,-2.5753,-2.5814,-2.5868,-2.5154,-2.5151,-2.5148,0,0,-2.3723,-2.3884,-2.3929,-2.4189,-2.4235,-2.4236,-2.4325,-2.429,-2.4378,-2.4415,-2.4458,-2.455,-2.4703,-2.4806,-2.4949,-2.5271,-2.5292,-2.5422,-2.5467,-2.5503,-2.5541,-2.5718,-2.5779,-2.5136,-2.5135,-2.5135,0,0,-2.3642,-2.3703,-2.3641,-2.394,-2.4026,-2.4091,-2.4252,-2.4178,-2.4305,-2.428,-2.4232,-2.4254,-2.4527,-2.4565,-2.4404,-2.4886,-2.4703,-2.4742,-2.4853,-2.4909,-2.4952,-2.4942,-2.4215,0,0,0,0,0,-2.3427,-2.3694,-2.3637,-2.3685,-2.3914,-2.4121,-2.4151,-2.4116,-2.3988,-2.4116,-2.414,-2.4046,-2.4468,-2.4324,-2.4374,-2.4558,-2.4979,-2.5007,-2.5033,-2.5251,-2.531,-2.5359,0,0,0,0,0,0,-2.3445,-2.3504,-2.363,-2.3706,-2.3757,-2.4111,-2.3888,-2.3885,-2.3973,-2.3952,-2.4044,-2.4049,-2.4025,-2.4297,-2.4342,-2.4518,-2.42,-2.499,-2.5013,-2.5035,-2.5271,-2.5319,-2.536,0,0,0,0,0,-2.346,-2.3507,-2.3883,-2.3702,-2.3746,-2.3763,-2.3877,-2.3874,-2.3941,-2.398,-2.3981,-2.3907,-2.403,-2.4066,-2.4323,-2.4498,-2.4169,-2.4185,-2.5005,-2.5024,-2.504,-2.5295,0,0,0,0,0,0,-2.347,-2.3506,-2.3891,-2.3904,-2.3598,-2.3743,-2.3764,-2.3864,-2.3963,-2.3968,-2.3839,-2.3821,-2.4038,-2.4064,-2.4092,-2.4493,-2.4143,-2.416,-2.4171,-2.5019,-2.5034,-2.5047,0,0,0,0,0,0,-2.348,-2.3517,-2.3898,-2.3769,-2.3766,-2.3724,-2.3743,-2.3956,-2.3966,-2.3817,-2.3805,-2.383,-2.3996,-2.4064,-2.4086,-2.442,-2.4123,-2.414,-2.4151,-2.4158,-2.5031,-2.5043,0,0,0,0,0,0,-2.3495,-2.3527,-2.3765,-2.3764,-2.376,-2.3896,-2.3912,-2.415,-2.3853,-2.3815,-2.3825,-2.3813,-2.4,-2.402,-2.4082,-2.4408,-2.4417,-2.4124,-2.4135,-2.4143,-2.4148,0,0,0,0,0,0,0,-2.3507,-2.3303,-2.3818,-2.3759,-2.3756,-2.4018,-2.4021,-2.4025,-2.385,-2.3839,-2.3828,-2.3818,-2.4029,-2.4047,-2.4065,-2.4398,0,0,-2.4122,-2.413,0,0,0,0,0,0,0,0,-2.3289,-2.33,-2.3818,-2.3821,-2.3823,-2.4018,-2.4021,-2.4024,-2.3848,-2.3839,-2.383,-2.3822,-2.4034,-2.4048,-2.4063,0,0,0,0,0,0,0,0,0,0,0,0,0,0,0,-2.3819,-2.3821,0,-2.4019,-2.4021,-2.4023,-2.3847,-2.384,-2.3832,-2.3826,-2.4038,-2.405,-2.4062,0,0,0,0,0,0,0,0,0,0,0,0,0,0,0,0,0,0,0,0,0,0,0,0,0,0,0,0,0,0,0,0,0,0,0,0,0,0,0,0,0,0,0,0,0,0,0,0,0,0,0,0,0,0,0,0,0,0,0,0,0,0,0,0,0,0,0,0,0]}],[{"header":{"parameterUnit":"kt","parameterCategory":2,"dx":1,"dy":1,"la1":30.253999710083008,"la2":30.299108505249023,"lo1":-89.0895004272461,"lo2":-89.04439544677734,"nx":28,"ny":28,"refTime":"2022-10-18T21:00:00:Z","depth":0,"parameterNumber":2,"parameterNumberName":"V-component_of_WINDS"},"data":[-13.1401,-13.1691,-13.1706,-13.2041,-13.211,-13.2339,-13.2425,-13.2536,-13.2626,-13.2897,-13.3053,-13.3093,-13.3184,-13.3369,-13.3536,-13.3548,-13.3616,-13.3709,-13.3707,-13.3288,-13.323,-13.3175,-13.3108,-13.3724,-13.3725,-13.4138,-13.4142,-13.4145,-13.1088,-13.1161,-13.1344,-13.153,-13.1685,-13.1605,-13.1744,-13.1877,-13.2083,-13.2197,-13.2353,-13.259,-13.2777,-13.2838,-13.3017,-13.3147,-13.3116,-13.3194,-13.3183,-13.3198,-13.2751,-13.2681,-13.3216,-13.3216,-13.3215,-13.3215,-13.3215,-13.3215,-13.0522,-13.0696,-13.0818,-13.1016,-13.1113,-13.1236,-13.1402,-13.1449,-13.1624,-13.1819,-13.1798,-13.2029,-13.2142,-13.2364,-13.244,-13.2616,-13.2531,-13.2618,-13.264,-13.2661,-13.2684,-13.2081,-13.2647,-13.2646,-13.2645,-13.2643,-13.2642,0,-13.0111,-13.0112,-13.0289,-13.047,-13.0615,-13.0755,-13.0885,-13.0988,-13.0988,-13.1132,-13.1341,-13.1463,-13.17,-13.1894,-13.2065,-13.2126,-13.2051,-13.2046,-13.2105,-13.2118,-13.2108,-13.2114,-13.1382,-13.2029,-13.2023,-13.202,-13.2017,-13.2015,-12.9538,-12.9741,-12.9875,-12.9997,-13.0072,-13.0269,-13.0387,-13.0373,-13.0499,-13.0654,-13.0805,-13.1001,-13.1157,-13.1485,-13.1531,-13.1707,-13.1671,-13.1917,-13.1697,-13.1701,-13.1672,-13.166,-13.1678,-13.1959,-13.1966,-13.1972,-13.1977,0,-12.9213,-12.9237,-12.9554,-12.9666,-12.97,-12.9911,-13.0003,-13.0174,-13.02,-13.0438,-13.0492,-13.0531,-13.0734,-13.0741,-13.0973,-13.0969,-13.1307,-13.127,-13.1267,-13.1259,-13.1478,-13.1456,-13.2191,-13.2285,-13.1649,-13.1655,-13.166,0,-12.8732,-12.8999,-12.9016,-12.9199,-12.9492,-12.9472,-12.9761,-12.9812,-12.9912,-13.0099,-13.0019,-13.0195,-13.0176,-13.0353,-13.0348,-13.0625,-13.067,-13.0682,-13.0677,-13.0689,-13.0687,-13.0751,-13.0721,-13.0662,-13.0658,-13.0655,-13.0652,0,-12.822,-12.8543,-12.8841,-12.8917,-12.9062,-12.9201,-12.9267,-12.9379,-12.9495,-12.9646,-12.972,-12.9896,-12.9993,-13.0128,-13.0121,-12.9971,-13.0461,-13.0254,-13.0473,-13.0474,-13.058,-13.0573,-13.1224,-13.0647,-13.0646,-13.0645,-13.0644,0,-12.7834,-12.7994,-12.8424,-12.8542,-12.8627,-12.8822,-12.8997,-12.9166,-12.9289,-12.93,-12.9419,-12.9365,-12.9611,-12.9404,-12.974,-12.9547,-12.9645,-12.968,-12.9696,-12.9716,-12.9484,-12.9848,-13.047,-13.0533,-12.9736,-12.9729,-12.9722,0,-12.724,-12.7681,-12.7668,-12.8076,-12.828,-12.8177,-12.8393,-12.8506,-12.8539,-12.8713,-12.8746,-12.8945,-12.8793,-12.8855,-12.9021,-12.9063,-12.9314,-12.903,-12.9272,-12.9281,-12.9242,-12.9814,-12.9905,-13.0333,-12.9626,-12.9636,-12.9643,0,-12.6783,-12.6961,-12.7036,-12.7121,-12.7271,-12.7442,-12.7691,-12.7885,-12.8001,-12.8137,-12.8342,-12.8622,-12.8517,-12.8622,-12.8597,-12.8769,-12.9143,-12.8633,-12.8635,-12.8722,-12.9579,-12.9663,-12.9735,-12.9087,-12.9099,-12.9108,-12.9567,0,-12.619,-12.6414,-12.6616,-12.6811,-12.6944,-12.7201,-12.7214,-12.7351,-12.7314,-12.7344,-12.7646,-12.774,-12.7935,-12.8019,-12.7985,-12.8379,-12.8313,-12.82,-12.7997,-12.8374,-12.8525,-12.8587,-12.7771,-12.7765,-12.776,-12.7756,0,0,-12.5614,-12.5936,-12.5915,-12.6158,-12.6269,-12.6159,-12.6432,-12.6526,-12.672,-12.6797,-12.6685,-12.7094,-12.7175,-12.754,-12.7659,-12.7738,-12.7808,-12.7677,-12.8195,-12.8244,-12.829,-12.8451,-12.8515,-12.7748,-12.7746,-12.7744,-12.7742,0,-12.54,-12.5494,-12.5767,-12.5865,-12.6009,-12.6028,-12.6094,-12.6216,-12.6247,-12.6546,-12.6447,-12.663,-12.6958,-12.7056,-12.7149,-12.7634,-12.7547,-12.7692,-12.7949,-12.8145,-12.8201,-12.825,-12.842,-12.8481,-12.773,-12.7731,-12.7731,0,-12.4949,-12.5043,-12.5177,-12.5428,-12.5521,-12.5734,-12.5526,-12.5761,-12.5917,-12.5781,-12.6079,-12.6132,-12.6264,-12.661,-12.6765,-12.6667,-12.7308,-12.7109,-12.714,-12.7157,-12.7346,-12.7413,-12.7473,-12.6688,-12.6685,-12.6681,0,0,-12.4762,-12.4972,-12.5066,-12.5383,-12.5449,-12.5481,-12.5596,-12.5572,-12.5697,-12.5747,-12.5814,-12.5935,-12.6124,-12.625,-12.6428,-12.6808,-12.6831,-12.698,-12.7029,-12.7069,-12.7108,-12.7308,-12.7374,-12.6668,-12.6667,-12.6667,0,0,-12.4671,-12.4795,-12.4737,-12.5107,-12.5231,-12.5342,-12.5533,-12.5464,-12.5627,-12.5599,-12.5565,-12.5596,-12.5919,-12.5976,-12.579,-12.6355,-12.6155,-12.62,-12.6307,-12.637,-12.6418,-12.6397,-12.5587,0,0,0,0,0,-12.446,-12.4779,-12.4726,-12.479,-12.5107,-12.5372,-12.5412,-12.5394,-12.5253,-12.5404,-12.5449,-12.535,-12.5868,-12.5703,-12.5764,-12.5971,-12.6489,-12.6521,-12.6551,-12.6778,-12.6843,-12.6898,0,0,0,0,0,0,-12.4485,-12.4564,-12.4717,-12.4843,-12.4913,-12.5361,-12.5117,-12.512,-12.5236,-12.5213,-12.5344,-12.5354,-12.5341,-12.5669,-12.5725,-12.5923,-12.5568,-12.6502,-12.6529,-12.6553,-12.68,-12.6854,-12.6899,0,0,0,0,0,-12.4505,-12.4568,-12.5082,-12.4838,-12.4899,-12.4952,-12.5104,-12.5106,-12.5194,-12.5265,-12.5271,-12.5171,-12.5347,-12.5393,-12.5703,-12.5898,-12.5529,-12.555,-12.6519,-12.654,-12.6559,-12.6827,0,0,0,0,0,0,-12.452,-12.457,-12.5094,-12.5111,-12.4717,-12.4926,-12.4959,-12.5093,-12.5238,-12.5248,-12.5088,-12.5068,-12.5356,-12.5389,-12.5425,-12.589,-12.5497,-12.5518,-12.5532,-12.6535,-12.6552,-12.6567,0,0,0,0,0,0,-12.4535,-12.4586,-12.5103,-12.4951,-12.4951,-12.4903,-12.4932,-12.5192,-12.5241,-12.5052,-12.504,-12.5077,-12.53,-12.5389,-12.5416,-12.5822,-12.5473,-12.5493,-12.5507,-12.5516,-12.6549,-12.6562,0,0,0,0,0,0,-12.4556,-12.4599,-12.4946,-12.4947,-12.4946,-12.5145,-12.5132,-12.5456,-12.5115,-12.5047,-12.5084,-12.5069,-12.5302,-12.5329,-12.541,-12.5806,-12.5818,-12.5473,-12.5487,-12.5497,-12.5504,0,0,0,0,0,0,0,-12.4573,-12.4289,-12.4988,-12.4943,-12.4942,-12.5277,-12.5282,-12.5286,-12.5112,-12.51,-12.5087,-12.5076,-12.5356,-12.5378,-12.5401,-12.5793,0,0,-12.5471,-12.5481,0,0,0,0,0,0,0,0,-12.427,-12.4284,-12.4989,-12.4993,-12.4996,-12.5278,-12.5282,-12.5285,-12.511,-12.51,-12.509,-12.508,-12.5362,-12.538,-12.5399,0,0,0,0,0,0,0,0,0,0,0,0,0,0,0,-12.4989,-12.4992,0,-12.5278,-12.5281,-12.5285,-12.5109,-12.51,-12.5092,-12.5084,-12.5367,-12.5382,-12.5397,0,0,0,0,0,0,0,0,0,0,0,0,0,0,0,0,0,0,0,0,0,0,0,0,0,0,0,0,0,0,0,0,0,0,0,0,0,0,0,0,0,0,0,0,0,0,0,0,0,0,0,0,0,0,0,0,0,0,0,0,0,0,0,0,0,0,0,0,0]}]]]